Home > Weather > Saint-Georges > Past weeks

Flag for Canada Past Weather in Saint-Georges, Quebec, Canada — Yesterday and Last 2 Weeks

Now
64 °F

Mild.


Feels Like: 64 °F
Forecast: 65 / 83 °F
Wind: 3 mph from South

Location: Beauceville

Current Time: Jun 27, 2016 at 5:28:59 AM

Latest Report: Jun 27, 2016 at 5:00 AM


Visibility: N/A

Pressure: 29.95 "Hg

Humidity: 76%

Dew Point: 56 °F

Location of Saint-GeorgesLocation

Past Weather in Saint-Georges — Graph

°F

Saint-Georges Temperature Yesterday

Maximum temperature yesterday: 86 °F (at 3:00 PM)
Minimum temperature yesterday: 53 °F (at 3:00 AM)
Average temperature yesterday: 71 °F

High & Low Weather Summary for the Past Weeks

 TemperatureHumidityPressure
High87 °F (Jun 20, 3:00 PM)100% (Jun 12, 4:00 AM)30.24 "Hg (Jun 12, 4:00 AM)
Low42 °F (Jun 16, 5:00 AM)18% (Jun 18, 4:00 PM)29.37 "Hg (Jun 12, 6:00 AM)
Average62 °F64%29.90 "Hg
* Reported Jun 12 4:00 AM — Jun 27 4:00 AM, Saint-Georges, Weather by CustomWeather, © 2016

Note: Actual official high and low records may vary slightly from our data, if they occured in-between our weather recording intervals... More about our weather records

Advertising

Saint-Georges Weather History for the Previous 24 Hours

Scroll right to see more
 ConditionsComfort  
Time TempWeatherWind HumidityBarometerVisibility
4:00 AM
Mon, Jun 27
64 °FMild.2 mph80%29.96 "HgN/A
3:00 AM66 °FMild.2 mph75%29.96 "HgN/A
2:00 AM67 °FMild.2 mph71%29.98 "HgN/A
1:00 AM67 °FMild.5 mph70%29.99 "HgN/A
12:00 AM69 °FMild.2 mph64%29.99 "HgN/A
11:00 PM
Sun, Jun 26
70 °FMild.3 mph65%30.00 "HgN/A
10:00 PM69 °FMild.2 mph67%30.00 "HgN/A
9:00 PM74 °FMild.3 mph54%30.01 "HgN/A
8:00 PM78 °FWarm.1 mph46%30.02 "HgN/A
7:00 PM84 °FPleasantly warm.3 mph32%30.02 "HgN/A
6:00 PM84 °FPleasantly warm.2 mph29%30.04 "HgN/A
5:00 PM86 °FPleasantly warm.6 mph27%30.05 "HgN/A
4:00 PM86 °FPleasantly warm.6 mph27%30.06 "HgN/A
3:00 PM86 °FPleasantly warm.6 mph26%30.08 "HgN/A
2:00 PM85 °FPleasantly warm.7 mph29%30.09 "HgN/A
1:00 PM84 °FPleasantly warm.7 mph30%30.11 "HgN/A
12:00 PM83 °FPleasantly warm.6 mph39%30.13 "HgN/A
11:00 AM79 °FWarm.5 mph52%30.14 "HgN/A
10:00 AM73 °FMild.2 mph61%30.16 "HgN/A
9:00 AM67 °FMild.6 mph70%30.16 "HgN/A
8:00 AM61 °FCool.3 mph80%30.18 "HgN/A
7:00 AM56 °FCool.2 mph87%30.18 "HgN/A
6:00 AM53 °FCool.3 mph97%30.19 "HgN/A
5:00 AM53 °FCool.5 mph99%30.18 "HgN/A
Weather by CustomWeather, © 2016

See weather overviewHow to use our weather pages